TimeEST,TemperatureF,Dew PointF,Humidity,Sea Level PressureIn,VisibilityMPH,Wind Direction,Wind SpeedMPH,Gust SpeedMPH,PrecipitationIn,Events,Conditions,WindDirDegrees,DateUTC
12:53 AM,46.9,41.0,80,30.27,10.0,NW,6.9,-,0.05,Rain,Light Rain,320,2012-11-13 05:53:00
1:53 AM,46.0,41.0,83,30.26,9.0,Variable,4.6,-,0.01,Rain,Light Rain,0,2012-11-13 06:53:00
2:53 AM,45.0,39.9,82,30.27,5.0,NNW,5.8,-,0.06,Rain,Rain,330,2012-11-13 07:53:00
3:53 AM,44.1,37.9,79,30.28,10.0,North,9.2,-,0.03,Rain,Light Rain,350,2012-11-13 08:53:00
4:53 AM,42.1,36.0,79,30.30,6.0,NNW,6.9,-,0.11,Rain,Rain,330,2012-11-13 09:53:00
5:53 AM,41.0,35.1,79,30.33,10.0,NW,10.4,-,0.06,Rain,Light Rain,320,2012-11-13 10:53:00
6:53 AM,41.0,30.9,67,30.36,10.0,NW,15.0,23.0,0.00,,Overcast,320,2012-11-13 11:53:00
7:53 AM,39.9,30.9,70,30.40,10.0,NW,8.1,-,N/A,,Mostly Cloudy,310,2012-11-13 12:53:00
8:53 AM,41.0,28.9,62,30.42,10.0,NNW,8.1,-,N/A,,Clear,340,2012-11-13 13:53:00
9:53 AM,42.1,27.0,55,30.43,10.0,NW,15.0,20.7,N/A,,Clear,310,2012-11-13 14:53:00
10:53 AM,44.1,27.0,51,30.43,10.0,NNW,8.1,-,N/A,,Clear,330,2012-11-13 15:53:00
11:53 AM,45.0,26.1,48,30.41,10.0,WNW,12.7,17.3,N/A,,Clear,300,2012-11-13 16:53:00
12:53 PM,46.0,25.0,44,30.39,10.0,WNW,10.4,-,N/A,,Clear,300,2012-11-13 17:53:00
1:53 PM,46.9,25.0,42,30.38,10.0,WNW,8.1,-,N/A,,Clear,300,2012-11-13 18:53:00
2:53 PM,46.9,24.1,41,30.38,10.0,North,12.7,-,N/A,,Clear,350,2012-11-13 19:53:00
3:53 PM,45.0,25.0,46,30.40,10.0,NNW,12.7,-,N/A,,Clear,340,2012-11-13 20:53:00
4:53 PM,41.0,23.0,49,30.43,10.0,North,10.4,-,N/A,,Clear,350,2012-11-13 21:53:00
5:53 PM,39.0,23.0,53,30.46,10.0,NNW,11.5,-,N/A,,Clear,340,2012-11-13 22:53:00
6:53 PM,37.9,21.9,53,30.48,10.0,NW,5.8,-,N/A,,Clear,310,2012-11-13 23:53:00
7:53 PM,37.0,21.9,54,30.49,10.0,NW,8.1,-,N/A,,Clear,310,2012-11-14 00:53:00
8:53 PM,37.0,21.9,54,30.51,10.0,NW,6.9,-,N/A,,Clear,310,2012-11-14 01:53:00
9:53 PM,36.0,21.9,57,30.51,10.0,WNW,5.8,-,N/A,,Clear,300,2012-11-14 02:53:00
10:53 PM,35.1,21.9,59,30.51,10.0,WNW,5.8,-,N/A,,Clear,300,2012-11-14 03:53:00
11:53 PM,35.1,21.9,59,30.52,10.0,WNW,6.9,-,N/A,,Clear,300,2012-11-14 04:53:00